DW7229 Weather Reports


time (UTC)temp
C
wind
direction
speed
KPH
gust
KPH
rain 1hr
cm
rain 24hr
cm
rain mn
cm
humidity
%
barometer
mb
20260508234017 12 0.0 3.2 0.00 0.00 0.00 35 1009.4
20260508233040 13 45 0.0 1.6 0.00 0.00 0.00 34 1009.4
20260508232024 13 247 3.2 8.0 0.00 0.00 0.00 33 1009.1
20260508231027 13 90 1.6 4.8 0.00 0.00 0.00 32 1008.9
20260508230111 14 203 1.6 9.7 0.00 0.00 0.00 30 1009.0
20260508225015 15 254 1.6 4.8 0.00 0.00 0.00 30 1008.8
20260508224018 15 202 1.6 9.7 0.00 0.00 0.00 29 1008.8
20260508223022 16 297 1.6 6.4 0.00 0.00 0.00 28 1008.8
20260508222019 15 254 4.8 9.7 0.00 0.00 0.00 28 1008.7
20260508221017 16 300 4.8 11.3 0.00 0.00 0.00 27 1008.6
20260508220052 16 318 3.2 6.4 0.00 0.00 0.00 27 1008.6
20260508215017 16 212 3.2 8.0 0.00 0.00 0.00 27 1008.5
20260508214020 16 4 4.8 11.3 0.00 0.00 0.00 26 1008.5
20260508213044 17 345 1.6 4.8 0.00 0.00 0.00 26 1008.4
20260508212027 15 290 1.6 9.7 0.00 0.00 0.00 28 1008.4
20260508210015 16 305 4.8 11.3 0.00 0.00 0.00 26 1008.3
20260508205019 15 239 1.6 6.4 0.00 0.00 0.00 27 1008.3
20260508204022 15 255 8.0 12.9 0.00 0.00 0.00 26 1008.1
20260508203025 17 285 6.4 14.5 0.00 0.00 0.00 25 1008.0
20260508202029 16 288 4.8 9.7 0.00 0.00 0.00 26 1008.1
20260508201032 -17 225 6.4 6.4 0.00 0.00 0.00 1008.0
20260508200017 16 224 6.4 14.5 0.00 0.00 0.00 26 1008.0
20260508195021 16 203 8.0 16.1 0.00 0.00 0.00 26 1008.0
20260508194024 17 273 9.7 14.5 0.00 0.00 0.00 25 1008.0
20260508193028 16 193 6.4 17.7 0.00 0.00 0.00 26 1008.1
20260508192030 15 239 4.8 9.7 0.00 0.00 0.00 27 1008.1
20260508191016 15 238 4.8 12.9 0.00 0.00 0.00 26 1008.1
20260508190019 16 240 6.4 14.5 0.00 0.00 0.00 26 1008.1
20260508185022 15 278 3.2 8.0 0.00 0.00 0.00 26 1008.1
20260508184019 15 303 4.8 11.3 0.00 0.00 0.00 27 1008.0
20260508183016 15 274 6.4 11.3 0.00 0.00 0.00 27 1007.9
20260508182032 15 262 4.8 11.3 0.00 0.00 0.00 29 1008.0
20260508181017 15 289 6.4 12.9 0.00 0.00 0.00 29 1008.1
20260508180020 15 345 4.8 12.9 0.00 0.00 0.00 30 1007.9
20260508175024 15 264 4.8 9.7 0.00 0.00 0.00 29 1008.1
20260508174027 15 188 6.4 9.7 0.00 0.00 0.00 31 1008.1
20260508173030 15 222 4.8 12.9 0.00 0.00 0.00 30 1008.1
20260508172015 16 305 4.8 12.9 0.00 0.00 0.00 30 1008.1
20260508171019 14 212 8.0 14.5 0.00 0.00 0.00 31 1008.0
20260508170022 15 237 4.8 12.9 0.00 0.00 0.00 29 1008.0
20260508165045 15 192 4.8 12.9 0.00 0.00 0.00 31 1007.9
20260508164029 15 217 6.4 12.9 0.00 0.00 0.00 30 1007.9
20260508163053 15 202 4.8 9.7 0.00 0.00 0.00 30 1008.0
20260508162037 15 277 4.8 9.7 0.00 0.00 0.00 28 1008.2
20260508161021 15 261 11.3 16.1 0.00 0.00 0.00 29 1008.4
20260508160024 15 348 4.8 11.3 0.00 0.00 0.00 28 1008.5
20260508155107 15 227 4.8 16.1 0.00 0.00 0.00 28 1008.5
20260508154030 15 296 4.8 14.5 0.00 0.00 0.00 31 1008.5
20260508153036 14 238 4.8 11.3 0.00 0.00 0.00 31 1008.5
20260508152019 13 333 3.2 9.7 0.00 0.00 0.00 32 1008.7
20260508151022 13 335 3.2 8.0 0.00 0.00 0.00 32 1008.6
20260508150019 13 284 8.0 12.9 0.00 0.00 0.00 32 1008.6
20260508145016 14 225 3.2 6.4 0.00 0.00 0.00 32 1008.7
20260508144032 14 251 8.0 16.1 0.00 0.00 0.00 31 1008.7
20260508143037 13 215 9.7 14.5 0.00 0.00 0.00 32 1008.7
20260508142020 14 253 9.7 17.7 0.00 0.00 0.00 32 1008.7
20260508141024 13 149 4.8 9.7 0.00 0.00 0.00 33 1008.9
20260508140027 13 141 6.4 20.9 0.00 0.00 0.00 34 1009.1
20260508135030 12 294 3.2 11.3 0.00 0.00 0.00 36 1009.1
20260508134015 12 274 6.4 11.3 0.00 0.00 0.00 37 1009.2
20260508133019 11 200 4.8 12.9 0.00 0.00 0.00 38 1009.1
20260508132022 11 275 4.8 11.3 0.00 0.00 0.00 40 1009.1
20260508131025 11 301 3.2 11.3 0.00 0.00 0.00 42 1009.2
20260508130029 10 342 3.2 8.0 0.00 0.00 0.00 42 1009.3
20260508125032 10 276 3.2 8.0 0.00 0.00 0.00 43 1009.3
20260508124017 10 170 3.2 16.1 0.00 0.00 0.00 44 1009.3
20260508123020 9 238 3.2 9.7 0.00 0.00 0.00 45 1009.4
20260508122023 9 338 1.6 8.0 0.00 0.00 0.00 47 1009.5
20260508121027 8 318 3.2 8.0 0.00 0.00 0.00 48 1009.4
20260508120030 8 238 3.2 6.4 0.00 0.00 0.00 49 1009.3
20260508115015 7 332 1.6 4.8 0.00 0.00 0.00 53 1009.4
20260508114018 6 0.0 0.0 0.00 0.00 0.00 57 1009.4
20260508113021 6 0.0 1.6 0.00 0.00 0.00 59 1009.5
20260508112039 5 248 0.0 3.2 0.00 0.00 0.00 64 1009.4
20260508111036 4 0.0 0.0 0.00 0.00 0.00 67 1009.3
20260508110031 3 0.0 0.0 0.00 0.00 0.00 71 1009.3
20260508105017 3 0.0 0.0 0.00 0.00 0.00 71 1009.0
20260508104020 2 0.0 0.0 0.00 0.00 0.00 74 1008.9
20260508103023 2 0.0 0.0 0.00 0.00 0.00 74 1008.8
20260508102027 2 0.0 0.0 0.00 0.00 0.00 74 1008.7
20260508101030 2 0.0 0.0 0.00 0.00 0.00 74 1008.6
20260508100015 2 0.0 0.0 0.00 0.00 0.00 74 1008.5
20260508095018 2 0.0 0.0 0.00 0.00 0.00 74 1008.4
20260508094022 2 0.0 0.0 0.00 0.00 0.00 74 1008.4
20260508093025 2 0.0 0.0 0.00 0.00 0.00 74 1008.4
20260508092028 2 0.0 0.0 0.00 0.00 0.00 73 1008.4
20260508091031 2 0.0 0.0 0.00 0.00 0.00 73 1008.3
20260508090017 2 0.0 0.0 0.00 0.00 0.00 73 1008.3
20260508085020 2 0.0 0.0 0.00 0.00 0.00 73 1008.2
20260508084023 2 0.0 0.0 0.00 0.00 0.00 73 1008.1
20260508083027 2 0.0 0.0 0.00 0.00 0.00 72 1008.0
20260508082030 2 0.0 0.0 0.00 0.00 0.00 72 1007.8
20260508081015 2 0.0 0.0 0.00 0.00 0.00 72 1007.6
20260508080018 2 0.0 0.0 0.00 0.00 0.00 72 1007.2
20260508075041 2 0.0 0.0 0.00 0.00 0.00 72 1007.1
20260508074019 2 0.0 0.0 0.00 0.00 0.00 72 1007.0
20260508073016 2 0.0 0.0 0.00 0.00 0.00 72 1006.9
20260508072032 3 0.0 0.0 0.00 0.00 0.00 71 1007.2
20260508071017 3 0.0 0.0 0.00 0.00 0.00 71 1007.2
20260508070020 3 0.0 0.0 0.00 0.00 0.00 71 1007.2
20260508065023 3 0.0 0.0 0.00 0.00 0.00 71 1007.1
20260508064027 3 0.0 0.0 0.00 0.00 0.00 70 1007.1
20260508063030 3 0.0 0.0 0.00 0.00 0.00 70 1007.1
20260508062015 3 0.0 0.0 0.00 0.00 0.00 69 1007.2
20260508061039 3 0.0 0.0 0.00 0.00 0.00 68 1007.4
20260508060021 3 0.0 0.0 0.00 0.00 0.00 68 1007.5
20260508055025 4 0.0 0.0 0.00 0.00 0.00 67 1007.5
20260508054028 4 0.0 0.0 0.00 0.00 0.00 66 1007.5
20260508053031 5 0.0 0.0 0.00 0.00 0.00 66 1007.5
20260508052017 5 0.0 0.0 0.00 0.00 0.00 66 1007.7
20260508051020 5 0.0 0.0 0.00 0.00 0.00 65 1007.8
20260508050023 5 0.0 0.0 0.00 0.00 0.00 65 1007.8
20260508045027 5 0.0 0.0 0.00 0.00 0.00 64 1008.0
20260508044030 5 0.0 0.0 0.00 0.00 0.00 65 1008.0
20260508043015 6 0.0 0.0 0.00 0.00 0.00 62 1008.0
20260508042019 5 0.0 0.0 0.00 0.00 0.00 64 1008.2
20260508041022 6 0.0 0.0 0.00 0.00 0.00 64 1007.9
20260508040019 6 0.0 0.0 0.00 0.00 0.00 64 1007.9
20260508035016 6 0.0 0.0 0.00 0.00 0.00 62 1007.8
20260508034032 6 0.0 0.0 0.00 0.00 0.00 64 1007.8
20260508033017 7 0.0 0.0 0.00 0.00 0.00 61 1007.9
20260508032020 7 0.0 0.0 0.00 0.00 0.00 61 1007.8
20260508031023 7 0.0 0.0 0.00 0.00 0.00 59 1007.9
20260508030027 7 0.0 0.0 0.00 0.00 0.00 61 1007.7
20260508025030 7 0.0 0.0 0.00 0.00 0.00 60 1007.6
20260508024015 7 0.0 0.0 0.00 0.00 0.00 58 1007.6
20260508023019 7 0.0 0.0 0.00 0.00 0.00 57 1007.7
20260508022022 8 0.0 0.0 0.00 0.00 0.00 55 1007.5
20260508021045 8 0.0 0.0 0.00 0.00 0.00 53 1007.5
20260508020049 8 0.0 0.0 0.00 0.00 0.00 52 1007.4
20260508015032 8 0.0 0.0 0.00 0.00 0.00 51 1007.4
20260508014017 9 0.0 0.0 0.00 0.00 0.00 49 1007.2
20260508013020 10 0.0 0.0 0.00 0.00 0.00 50 1006.9
20260508012023 10 0.0 0.0 0.00 0.00 0.00 46 1006.8
20260508011026 10 0.0 0.0 0.00 0.00 0.00 44 1006.8
20260508010030 11 0.0 0.0 0.00 0.00 0.00 43 1006.5
20260508005015 11 0.0 0.0 0.00 0.00 0.00 41 1006.4
20260508004018 12 225 0.0 1.6 0.00 0.00 0.00 36 1006.3
20260508003022 12 283 1.6 4.8 0.00 0.00 0.00 36 1006.3
20260508002019 12 315 0.0 3.2 0.00 0.00 0.00 35 1006.3
20260508001017 12 0.0 0.0 0.00 0.00 0.00 34 1006.2
20260508000032 12 272 0.0 4.8 0.00 0.00 0.00 34 1005.9
20260507235017 13 0.0 1.6 0.00 0.00 0.00 32 1006.1